Regional Weather Roundup
Issued by NWS

Home | Current Version | Previous Version | Graphics & Text | Print | Product List | Glossary On
Versions: 1 2 3 4 5 6 7 8 9 10 11 12 13 14 15 16 17 18 19 20 21 22 23 24 25 26 27 28 29 30 31 32 33 34 35 36 37 38 39 40 41 42 43 44 45 46 47 48 49 50
000
ASUS43 KTOP 280259
RWRKS

WEATHER ROUNDUP FOR KANSAS
NATIONAL WEATHER SERVICE GOODLAND KS
1000 PM CDT FRI MAY 27 2016

NOTE:  "FAIR" INDICATES FEW OR NO CLOUDS BELOW 12,000 FEET WITH NO
SIGNIFICANT WEATHER AND/OR OBSTRUCTIONS TO VISIBILITY.

KSZ001>006-013>018-027>032-041>047-280400-
NORTHWEST KANSAS

CITY           SKY/WX    TMP DP  RH WIND       PRES   REMARKS
GOODLAND       MOCLDY    50  48  93 N5        29.82R
HAYS           CLOUDY    27 N/A N/A N9        29.70F
HILL CITY      CLOUDY    62  59  90 NW10      29.72R
RUSSELL        TSTM      57  53  86 NW5       29.69S FOG
$$

KSZ061>065-074>080-084>089-280400-
SOUTHWEST KANSAS

CITY           SKY/WX    TMP DP  RH WIND       PRES   REMARKS
DODGE CITY     MOCLDY    58  54  86 N14       29.70R
ELKHART          N/A     57  44  62 NW14        N/A
GARDEN CITY    CLOUDY    55  49  80 NW17      29.75R
GREAT BEND     CLOUDY    59  50  72 N13G20    29.69R THUNDER
LIBERAL        CLEAR     57  43  58 NW18G25   29.81R
$$

KSZ066>073-081>083-090>101-280400-
SOUTHEAST KANSAS

CITY           SKY/WX    TMP DP  RH WIND       PRES   REMARKS
CHANUTE        TSTM      61  58  90 N5        29.76F
COFFEYVILLE    CLOUDY    68  56  65 N10       29.76R
HUTCHINSON     PTCLDY    62  58  86 E8        29.67R
MEDICINE LODGE   N/A     67  60  78 SE9       29.66R
NEWTON         CLOUDY    61  54  77 SE10      29.71R
PARSONS        RAIN      62  58  86 N7        29.78R
WICHITA INTL   PTCLDY    62  58  86 SE9       29.68R
WICHITA JABRA  PTCLDY    61  58  90 SE8       29.69R
WINFIELD       CLOUDY    62  59  90 E3        29.72R
$$

KSZ007>012-019>026-033>040-048>060-102>105-280400-
NORTHEAST KANSAS

CITY           SKY/WX    TMP DP  RH WIND       PRES   REMARKS
CONCORDIA      CLOUDY    60  55  83 CALM      29.68S
EMPORIA        LGT RAIN  60  58  92 E8        29.74R
LAWRENCE       LGT RAIN  61  58  90 W6        29.75S
MANHATTAN      CLOUDY    61  57  87 N5        29.69R
OLATHE IND     LGT RAIN  61  58  90 NW14      29.77R
OLATHE EXE     CLOUDY    67  62  84 W12G18    29.76R
SALINA         CLOUDY    63  54  72 E6        29.67R
TOPEKA BILLARD CLOUDY    62  58  86 VRB5      29.74R
TOPEKA FORBES  LGT RAIN  62  59  90 S3        29.75R
$$



USA.gov is the U.S. government's official web portal to all federal, state and local government web resources and services.